Вернуться в каталог

STARLINK-34368

АктивенСвязьVLEO
NORAD 64311·PAYLOAD·🇺🇸 United States

Запущен Jun 8, 2025 с Vandenberg Space Force Base

Loading…

Ближайшие Пролёты (ближайшие 24 часа)

TLE

СвежийSource: CelesTrak SupGP

Эпоха: Sep 14, 2026, 21:03 UTC

1 64311C 25123W   26257.87756944  .00002328  00000+0  80984-4 0  2574
2 64311  70.0002  75.8573 0003262 273.5560 199.2222 15.29572097    17

Отслеживайте STARLINK-34368 в реальном времени с AllMySat

Download on the App Store